Seward, AK

8:34 AM AKST on December 10, 2016 (GMT -0900)
Seward

Weather History for PAWD - March, 2013

Change the Weather History Date:

Saturday, March 30, 2013

  Actual Average Record
Temperature  
Mean Temperature 34 °F -  
Max Temperature 39 °F 39 °F 51 °F (1954)
Min Temperature 30 °F 27 °F 10 °F (2004)
Degree Days  
Heating Degree Days 30    
Moisture  
Dew Point 32 °F    
Average Humidity 90    
Maximum Humidity 96    
Minimum Humidity 82    
Precipitation  
Precipitation 0.06 in - - ()
Sea Level Pressure  
Sea Level Pressure 30.15 in    
Wind  
Wind Speed 3 mph (SSE)    
Max Wind Speed 12 mph    
Max Gust Speed -    
Visibility 8 miles    
Events Rain , Snow    
Averages and records for this station are not official NWS values.
T = Trace of Precipitation, MM = Missing Value Source: NWS Daily Summary

Daily Weather History Graph

Daily Weather History Graph

Search for Another Location

Airport or City:

Trip Planner

Search our weather history database for the weather conditions in past years. The results will help you decide how hot, cold, wet, or windy it might be!

Date:

Astronomy

Mar. 30, 2013 Rise Set
Actual Time 7:27 AM AKDT 8:38 PM AKDT
Civil Twilight 6:44 AM AKDT 9:21 PM AKDT
Nautical Twilight 5:51 AM AKDT 10:14 PM AKDT
Astronomical Twilight 4:50 AM AKDT 11:16 PM AKDT
Moon 12:46 AM AKDT (3/30) 8:28 AM AKDT (3/30)
Length of Visible Light 14h 36m
Length of Day
13h 10m
Waning Gibbous, 85% of the Moon is Illuminated
Mar 30
Waning Gibbous
Apr 2
Last Quarter
Apr 10
New
Apr 18
First Quarter
Apr 25
Full

Hourly Weather History & Observations

Time (AKDT) Temp. Windchill Dew Point Humidity Pressure Visibility Wind Dir Wind Speed Gust Speed Precip Events Conditions
12:53 AM 33.1 °F 28.7 °F 30.9 °F 92% 29.96 in 10.0 mi NNE 4.6 mph - N/A   Overcast
1:53 AM 30.9 °F - 28.9 °F 92% 29.98 in 10.0 mi Calm Calm - N/A   Overcast
2:53 AM 34.0 °F 31.0 °F 30.0 °F 85% 29.99 in 10.0 mi NNE 3.5 mph - N/A   Overcast
3:53 AM 32.0 °F - 30.0 °F 92% 30.01 in 10.0 mi Calm Calm - N/A   Overcast
4:53 AM 32.0 °F - 30.0 °F 92% 30.03 in 10.0 mi Calm Calm - N/A   Overcast
5:53 AM 30.9 °F - 30.0 °F 96% 30.04 in 10.0 mi Calm Calm - N/A   Overcast
6:53 AM 32.0 °F - 28.9 °F 88% 30.06 in 10.0 mi Calm Calm - N/A   Overcast
7:53 AM 30.9 °F - 28.9 °F 92% 30.08 in 10.0 mi Calm Calm - N/A   Overcast
8:53 AM 32.0 °F 28.7 °F 30.0 °F 92% 30.09 in 4.0 mi NNW 3.5 mph - 0.00 in Snow Light Snow
9:53 AM 34.0 °F - 30.9 °F 89% 30.12 in 1.5 mi Calm Calm - 0.00 in Snow Light Snow
10:05 AM 33.8 °F - 32.0 °F 93% 30.13 in 1.2 mi Calm Calm - 0.01 in Snow Light Snow
10:12 AM 33.8 °F - 32.0 °F 93% 30.13 in 2.0 mi Calm Calm - 0.01 in Snow Light Snow
10:22 AM 35.6 °F - 33.8 °F 93% 30.13 in 5.0 mi Calm Calm - 0.01 in Snow Light Snow
10:37 AM 35.6 °F - 33.8 °F 93% 30.13 in 2.5 mi Calm Calm - 0.03 in Snow Light Snow
10:44 AM 35.6 °F - 33.8 °F 93% 30.14 in 3.0 mi Calm Calm - 0.03 in Snow Light Snow
10:53 AM 35.1 °F - 33.1 °F 92% 30.14 in 8.0 mi Calm Calm - 0.03 in Snow Light Snow
11:53 AM 36.0 °F - 33.1 °F 89% 30.15 in 10.0 mi Calm Calm - 0.00 in   Overcast
12:53 PM 36.0 °F 33.3 °F 32.0 °F 86% 30.17 in 10.0 mi South 3.5 mph - 0.00 in   Overcast
1:53 PM 37.0 °F 33.3 °F 32.0 °F 82% 30.18 in 10.0 mi South 4.6 mph - 0.00 in   Overcast
2:53 PM 37.9 °F 32.7 °F 33.1 °F 83% 30.19 in 10.0 mi SSE 6.9 mph - N/A   Overcast
3:53 PM 39.0 °F 34.0 °F 34.0 °F 82% 30.19 in 10.0 mi South 6.9 mph - N/A   Overcast
4:53 PM 39.0 °F 33.4 °F 34.0 °F 82% 30.19 in 10.0 mi SSE 8.1 mph - N/A   Overcast
5:53 PM 37.9 °F 30.9 °F 33.1 °F 83% 30.19 in 10.0 mi SSE 10.4 mph - N/A   Overcast
6:53 PM 37.9 °F 30.9 °F 33.1 °F 83% 30.20 in 10.0 mi SSE 10.4 mph - N/A   Overcast
7:53 PM 37.0 °F 29.3 °F 33.1 °F 86% 30.21 in 10.0 mi SSE 11.5 mph - 0.00 in   Overcast
8:25 PM 37.4 °F 30.8 °F 33.8 °F 87% 30.22 in 10.0 mi SSE 9.2 mph - 0.00 in Rain Light Rain
8:34 PM 37.4 °F 30.3 °F 33.8 °F 87% 30.22 in 10.0 mi SSE 10.4 mph - 0.01 in Rain Light Rain
8:37 PM 37.4 °F 30.8 °F 33.8 °F 87% 30.22 in 8.0 mi SSE 9.2 mph - 0.01 in Rain Light Rain
8:53 PM 36.0 °F 29.6 °F 33.1 °F 89% 30.23 in 10.0 mi SSE 8.1 mph - 0.03 in Rain Light Rain
9:10 PM 35.6 °F 28.0 °F 33.8 °F 93% 30.23 in 10.0 mi SSE 10.4 mph - 0.00 in Rain Light Rain
9:27 PM 35.6 °F 29.2 °F 33.8 °F 93% 30.23 in 10.0 mi SSE 8.1 mph - 0.00 in   Overcast
9:53 PM 35.1 °F 30.1 °F 33.1 °F 92% 30.24 in 10.0 mi ESE 5.8 mph - 0.00 in Rain Light Rain
10:05 PM 35.6 °F - 33.8 °F 93% 30.24 in 10.0 mi Calm Calm - 0.00 in   Overcast
10:14 PM 35.6 °F - 33.8 °F 93% 30.24 in 10.0 mi Calm Calm - 0.00 in   Overcast
10:34 PM 35.6 °F 31.7 °F 33.8 °F 93% 30.24 in 10.0 mi NNW 4.6 mph - 0.00 in   Overcast
10:53 PM 35.1 °F - 33.1 °F 92% 30.25 in 10.0 mi Calm Calm - 0.00 in   Overcast
11:53 PM 35.1 °F - 33.1 °F 92% 30.25 in 10.0 mi Calm Calm - N/A   Overcast